Regional Weather Roundup
Issued by NWS

Home | Current Version | Previous Version | Text Only | Print | Product List | Glossary On
Versions: 1 2 3 4 5 6 7 8 9 10 11 12 13 14 15 16 17 18 19 20 21 22 23 24 25 26 27 28 29 30 31 32 33 34 35 36 37 38 39 40 41 42 43 44 45 46 47 48 49 50
000
ASUS43 KMPX 281910
RWRMN
WEATHER ROUNDUP FOR MINNESOTA
NATIONAL WEATHER SERVICE TWIN CITIES/CHANHASSEN MN
200 PM CDT WED JUN 28 2017


NOTE: "FAIR" INDICATES FEW OR NO CLOUDS BELOW 12,000 FEET WITH NO
SIGNIFICANT WEATHER AND/OR OBSTRUCTIONS TO VISIBILITY. N/A MEANS
CURRENT SKY AND/OR WEATHER CONDITIONS ARE NOT AVAILABLE.

MNZ060>063-068>070-282000-
   Twin Cities Metro

CITY           SKY/WX    TMP DP  RH WIND       PRES   REMARKS
TWIN CITIES    PTSUNNY   78  66  66 S18       29.54F
ST PAUL        PTSUNNY   76  69  79 SE12G20   29.55F
CRYSTAL        PTSUNNY   78  66  66 S15       29.51F
BLAINE         PTSUNNY   73  72  94 SE12      29.53F
LAKEVILLE      CLOUDY    75  68  78 S8        29.56S
EDEN PRAIRIE   CLOUDY    80  68  66 S15G23    29.52F
SOUTH ST PAUL  MOSUNNY   76  68  74 S10       29.55F
LAKE ELMO      CLOUDY    73  68  83 S13       29.57F
$$
MNZ001>005-007-008-013>017-022>024-027-028-282000-
   Northwest Minnesota

CITY           SKY/WX    TMP DP  RH WIND       PRES   REMARKS
BEMIDJI        CLOUDY    63  59  89 E14       29.51F
HALLOCK        LGT RAIN  63  63 100 NE3       29.57R
ROSEAU         RAIN      61  55  82 E12       29.58S
WARROAD        DRIZZLE   61  55  82 NE9       29.59S
THIEF RVR FALL RAIN      59  57  94 NE13      29.55R
CROOKSTON      RAIN      61  59  94 NE10      29.53R
FOSSTON        LGT RAIN  61  59  94 E5        29.51S
DETROIT LAKES  LGT RAIN  66  63  88 SE6       29.50R
MOORHEAD       PTSUNNY   68  63  83 NW18      29.50R
PARK RAPIDS    CLOUDY    63  59  87 E9        29.50S
MAHNOMEN       CLOUDY    62  61  97 E8        29.48S FOG
$$
MNZ006-009>011-018-025>026-282000-
   North Central Minnesota

CITY           SKY/WX    TMP DP  RH WIND       PRES   REMARKS
BAUDETTE       LGT RAIN  59  58  96 E8        29.58F FOG
FLAG ISLAND    DRIZZLE   63  55  77 E6        29.59F
INTL FALLS     LGT RAIN  62  58  86 E7        29.59F
WASKISH        CLOUDY    61  59  94 E8        29.54F
BIG FORK       CLOUDY    64  57  77 E5        29.56F
LONGVILLE      CLOUDY    61  57  88 E7        29.52F FOG
GRAND RAPIDS   LGT RAIN  58  57  97 E6        29.57F
CRANE LAKE     CLOUDY    64  57  77 CALM      29.63S
ORR            CLOUDY    63  54  72 SE7       29.57F
COOK           LGT RAIN  61  57  88 E6        29.61S
WALKER         CLOUDY    62  58  88 E9        29.51F
$$
MNZ012-019>021-037-282000-
   Northeast Minnesota

CITY           SKY/WX    TMP DP  RH WIND       PRES   REMARKS
DULUTH         LGT RAIN  55  55 100 E14       29.59F FOG
ELY            LGT RAIN  57  54  88 E5        29.63F
HIBBING        RAIN      57  57 100 E8        29.58F FOG
EVELETH        RAIN      58  55  90 E6        29.61F
DULUTH HARBOR  LGT RAIN  52  48  87 NE21G26   29.60S
TWO HARBORS    RAIN      57  54  88 E7        29.60F
SILVER BAY     LGT RAIN  55  54  94 NE8       29.63F
GRAND MARAIS     N/A     53  48  83 NE10      29.68
G MARAIS ARPRT LGT RAIN  57  48  72 E5        29.70F
$$
MNZ029>031-032-039>041-046>048-054>057-064-282000-
   West Central Minnesota

CITY           SKY/WX    TMP DP  RH WIND       PRES   REMARKS
FERGUS FALLS   CLOUDY    70  64  83 NW13      29.48R
WHEATON        CLOUDY    73  61  64 W22G29    29.54R
MORRIS         PTSUNNY   73  63  68 W20G26    29.51R
ALEXANDRIA     CLOUDY    68  64  87 W16       29.50S
ELBOW LAKE     CLOUDY    69  65  88 NW15G24   29.51R
WADENA         CLOUDY    66  63  88 SE3       29.48S
GLENWOOD       CLOUDY    68  63  83 W18G25    29.51R
APPLETON       CLOUDY    79  61  53 W20G29    29.52R
BENSON         CLOUDY    73  63  68 NW18G29   29.53S
ORTONVILLE     PTSUNNY   75  61  60 NW18G25   29.54R
MADISON        MOSUNNY   81  63  54 NW18G31   29.54R
WILLMAR        PTSUNNY   75  64  69 W15G28    29.54R
$$
MNZ033>034-036-042>043-049>051-058-059-282000-
   Central Minnesota

CITY           SKY/WX    TMP DP  RH WIND       PRES   REMARKS
ST CLOUD       CLOUDY    69  67  93 S9        29.51R
SAUK CENTRE    CLOUDY    69  62  81 SW14      29.50S
PAYNESVILLE    CLOUDY    72  69  92 SW17G25   29.52S
AITKIN         LGT RAIN  63  61  94 E3        29.51F
PINE RIVER     DRIZZLE   63  63 100 MISG      29.55S
BRAINERD       LGT RAIN  65  64  97 E3        29.50F FOG
STAPLES        DRIZZLE   64  63  94 CALM      29.48S
LONG PRAIRIE   CLOUDY    68  63  83 S10       29.49S
LITTLE FALLS   CLOUDY    64  63  94 S5        29.49F
LITCHFIELD     PTSUNNY   75  66  73 W10G21    29.53S
BUFFALO        MOSUNNY   74  65  73 SW10      29.54S
MAPLE LAKE     CLOUDY    76  69  78 S5        29.53S
HUTCHINSON     CLOUDY    77  68  73 SW10G18   29.54S
$$
MNZ037-044-045-052-053-282000-
   East Central Minnesota

CITY           SKY/WX    TMP DP  RH WIND       PRES   REMARKS
PRINCETON      PTSUNNY   72  68  88 S10       29.53R
MORA           LGT RAIN  64  63  94 S8        29.54F
CAMBRIDGE      LGT RAIN  70  64  83 SE10      29.51F
RUSH CITY      CLOUDY    68  64  88 S9        29.54F
MOOSE LAKE     DRIZZLE   63  61  94 CALM      29.54S
HINCKLEY       LGT RAIN  66  66 100 S10       29.54F
CLOQUET        LGT RAIN  55  54  94 E10       29.57F
MCGREGOR       CLOUDY    63  61  94 E7        29.53F
$$
MNZ071>073-080-081-089-090-097-098-282000-
   Southwest Minnesota

CITY           SKY/WX    TMP DP  RH WIND       PRES   REMARKS
MONTEVIDEO     CLOUDY    81  63  54 NW17G30   29.52F
GRANITE FALLS  CLOUDY    81  66  59 W22G29    29.55S
CANBY          CLOUDY    82  61  48 NW18G28   29.58R
MARSHALL       CLOUDY    81  66  60 W17G28    29.56R
REDWOOD FALLS  CLOUDY    81  63  54 W23G29    29.54R
OLIVIA         CLOUDY    77  66  69 W15       29.53S
PIPESTONE      MOSUNNY   82  63  51 W15G22    29.62S
WINDOM         MOSUNNY   82  63  51 SW18      29.60R
WORTHINGTON    SUNNY     80  65  59 SW16      29.62R
JACKSON        SUNNY     81  64  57 SW16G23   29.61F
TRACY          CLOUDY    78  68  70 W10G22    29.59R
SLAYTON        MOSUNNY   79  66  64 SW15G23   29.62R
$$
MNZ065>067-074>077-082>085-091>093-282000-
   South Central Minnesota

CITY           SKY/WX    TMP DP  RH WIND       PRES   REMARKS
MANKATO        PTSUNNY   80  69  69 SW21G28   29.56S
NEW ULM        CLOUDY    79  63  57 SW18G24   29.56R
ST JAMES       PTSUNNY   81  66  61 SW17G24   29.58F
FAIRMONT       SUNNY     80  69  69 SW15G23   29.60S
GLENCOE        CLOUDY    81  70  70 SW15G21   29.53S
FARIBAULT      MOSUNNY   81  66  61 S16G24    29.57S
OWATONNA       CLOUDY    79  70  73 S15       29.59S
WASECA         PTSUNNY   79  68  69 SW17G24   29.60S
ALBERT LEA     MOSUNNY   77  66  69 SW10      29.61F
$$
MNZ078>079-086>088-094>096-282000-
   Southeast Minnesota

CITY           SKY/WX    TMP DP  RH WIND       PRES   REMARKS
ROCHESTER      PTSUNNY   72  67  84 S20G35    29.63F
RED WING       PTSUNNY   75  64  69 S7        29.58F
STANTON        CLOUDY    79  68  69 S13G24    29.55F
DODGE CENTER   PTSUNNY   75  66  73 S22G32    29.61F
WINONA         CLOUDY    73  64  73 SE8G17    29.64F
AUSTIN         PTSUNNY   72  66  83 S14       29.63F
PRESTON        CLOUDY    68  64  87 S18G28    29.66F
$$
ABBREVIATIONS USED IN REMARKS
   TC - TEMPERATURES IN CELSIUS
  WCI - WIND CHILL INDEX
   HX - HEAT INDEX
  VSB - VISIBILITY
$$



USA.gov is the U.S. government's official web portal to all federal, state and local government web resources and services.